Birmingham, AL

1:42 PM CST on February 06, 2016 (GMT -0600)
Birmingham International

Weather History for KBHM - February, 2014

Change the Weather History Date:

Thursday, February 20, 2014

  Actual Average Record
Temperature  
Mean Temperature 68 °F 49 °F  
Max Temperature 72 °F 60 °F 78 °F (1986)
Min Temperature 63 °F 38 °F 16 °F (1958)
Degree Days  
Heating Degree Days 0 16  
Month to date heating degree days 381 367  
Since 1 July heating degree days 2352 2072  
Cooling Degree Days 2    
Growing Degree Days 17 (Base 50)    
Moisture  
Dew Point 60 °F    
Average Humidity 80    
Maximum Humidity 93    
Minimum Humidity 66    
Precipitation  
Precipitation 0.41 in 0.17 in 2.99 in (1961)
Month to date precipitation 4.12 3.18  
Year to date precipitation 5.68 8.02  
Snow  
Snow 0.00 in 0.00 in - ()
Month to date snowfall 3.0 0.1  
Since 1 July snowfall 5.0 0.8  
Snow Depth 0.00 in    
Sea Level Pressure  
Sea Level Pressure 29.94 in    
Wind  
Wind Speed 13 mph (South)    
Max Wind Speed 36 mph    
Max Gust Speed 44 mph    
Visibility 9 miles    
Events Rain , Thunderstorm    
T = Trace of Precipitation, MM = Missing Value Source: NWS Daily Summary

Daily Weather History Graph

Daily Weather History Graph

Search for Another Location

Airport or City:

Trip Planner

Search our weather history database for the weather conditions in past years. The results will help you decide how hot, cold, wet, or windy it might be!

Date:

Astronomy

Feb. 20, 2014 Rise Set
Actual Time 6:25 AM CST 5:36 PM CST
Civil Twilight 6:00 AM CST 6:01 PM CST
Nautical Twilight 5:31 AM CST 6:30 PM CST
Astronomical Twilight 5:02 AM CST 6:59 PM CST
Moon 11:11 PM CST (2/20) 9:25 AM CST (2/20)
Length of Visible Light 12h 00m
Length of Day
11h 10m
Waning Gibbous, 70% of the Moon is Illuminated
Feb 20
Waning Gibbous
Feb 22
Last Quarter
Mar 1
New
Mar 8
First Quarter
Mar 16
Full

Hourly Weather History & Observations

Time (CST) Temp. Dew Point Humidity Pressure Visibility Wind Dir Wind Speed Gust Speed Precip Events Conditions
12:53 AM 63.0 °F 59.0 °F 87% 29.99 in 10.0 mi South 9.2 mph - N/A   Mostly Cloudy
1:41 AM 62.6 °F 60.8 °F 94% 30.01 in 10.0 mi South 11.5 mph - N/A   Mostly Cloudy
1:53 AM 63.0 °F 60.1 °F 90% 30.00 in 10.0 mi South 13.8 mph 20.7 mph N/A   Overcast
2:30 AM 64.4 °F 60.8 °F 88% 30.01 in 10.0 mi South 13.8 mph - N/A   Overcast
2:53 AM 64.0 °F 60.1 °F 87% 29.99 in 10.0 mi South 11.5 mph 20.7 mph N/A   Overcast
3:24 AM 64.4 °F 60.8 °F 88% 30.00 in 10.0 mi South 12.7 mph - N/A   Overcast
3:53 AM 64.0 °F 60.1 °F 87% 29.99 in 10.0 mi South 10.4 mph - N/A   Mostly Cloudy
4:31 AM 64.4 °F 59.0 °F 83% 30.00 in 10.0 mi South 10.4 mph - N/A   Mostly Cloudy
4:53 AM 64.0 °F 59.0 °F 84% 29.98 in 10.0 mi South 11.5 mph 18.4 mph N/A   Overcast
5:53 AM 64.0 °F 57.9 °F 80% 30.00 in 10.0 mi South 10.4 mph 21.9 mph N/A   Overcast
6:23 AM 64.4 °F 57.2 °F 77% 30.01 in 10.0 mi South 9.2 mph - N/A   Overcast
6:34 AM 64.4 °F 57.2 °F 77% 30.01 in 10.0 mi South 10.4 mph 19.6 mph N/A   Overcast
6:53 AM 64.0 °F 57.9 °F 80% 30.00 in 10.0 mi SSE 9.2 mph 18.4 mph N/A   Overcast
7:53 AM 64.0 °F 59.0 °F 84% 30.02 in 10.0 mi SSE 8.1 mph - N/A   Overcast
8:53 AM 64.9 °F 59.0 °F 81% 30.02 in 10.0 mi South 9.2 mph 18.4 mph N/A   Overcast
9:53 AM 64.0 °F 60.1 °F 87% 30.02 in 10.0 mi SSE 10.4 mph - N/A   Overcast
10:53 AM 64.9 °F 60.1 °F 84% 30.01 in 10.0 mi SSE 10.4 mph - 0.00 in Rain Light Rain
11:31 AM 66.2 °F 60.8 °F 83% 30.00 in 10.0 mi SSE 10.4 mph - 0.00 in   Overcast
11:53 AM 66.9 °F 60.1 °F 79% 29.98 in 10.0 mi South 9.2 mph 17.3 mph 0.00 in   Overcast
12:42 PM 69.8 °F 60.8 °F 73% 29.97 in 10.0 mi South 9.2 mph - N/A   Overcast
12:53 PM 70.0 °F 60.1 °F 71% 29.95 in 10.0 mi South 9.2 mph - N/A   Overcast
1:26 PM 69.8 °F 60.8 °F 73% 29.96 in 10.0 mi South 12.7 mph 18.4 mph N/A   Overcast
1:33 PM 69.8 °F 60.8 °F 73% 29.96 in 10.0 mi South 9.2 mph 18.4 mph N/A   Overcast
1:53 PM 72.0 °F 60.1 °F 66% 29.94 in 10.0 mi South 16.1 mph 26.5 mph N/A   Mostly Cloudy
2:53 PM 71.1 °F 60.1 °F 68% 29.92 in 10.0 mi SSE 10.4 mph 19.6 mph N/A   Scattered Clouds
3:53 PM 72.0 °F 60.1 °F 66% 29.90 in 10.0 mi South 9.2 mph 17.3 mph N/A   Mostly Cloudy
4:53 PM 72.0 °F 59.0 °F 64% 29.90 in 10.0 mi SSE 10.4 mph 18.4 mph N/A   Mostly Cloudy
5:53 PM 70.0 °F 60.1 °F 71% 29.90 in 10.0 mi SSE 11.5 mph 24.2 mph N/A   Mostly Cloudy
6:53 PM 68.0 °F 61.0 °F 78% 29.88 in 10.0 mi SSE 10.4 mph 18.4 mph 0.00 in   Clear
7:53 PM 68.0 °F 62.1 °F 81% 29.85 in 10.0 mi SSE 16.1 mph 25.3 mph N/A   Partly Cloudy
8:40 PM 68.0 °F 62.6 °F 83% 29.83 in 10.0 mi South 15.0 mph 31.1 mph N/A   Mostly Cloudy
8:53 PM 68.0 °F 62.1 °F 81% 29.81 in 10.0 mi South 19.6 mph 31.1 mph N/A   Overcast
9:53 PM 68.0 °F 62.1 °F 81% 29.81 in 10.0 mi South 17.3 mph 26.5 mph N/A   Overcast
10:53 PM 69.1 °F 63.0 °F 81% 29.82 in 10.0 mi SSW 19.6 mph 26.5 mph N/A   Overcast
11:21 PM 68.0 °F 64.4 °F 88% 29.84 in 3.0 mi SSW 19.6 mph 27.6 mph 0.08 in Rain , Thunderstorm Thunderstorms and Rain
11:26 PM 66.2 °F 64.4 °F 94% 29.83 in 1.8 mi SW 12.7 mph 26.5 mph 0.15 in Rain , Thunderstorm Heavy Thunderstorms and Rain
11:39 PM 66.2 °F 62.6 °F 88% 29.87 in 2.5 mi SSW 23.0 mph 33.4 mph 0.32 in Rain , Thunderstorm Heavy Thunderstorms and Rain
11:48 PM 66.2 °F 62.6 °F 88% 29.86 in 3.0 mi SSW 32.2 mph 43.7 mph 0.38 in Rain , Thunderstorm Heavy Thunderstorms and Rain
11:53 PM 64.9 °F 61.0 °F 87% 29.84 in 3.0 mi SSW 28.8 mph 43.7 mph 0.39 in Rain , Thunderstorm Thunderstorms and Rain